Location: Coffee Ditch
(40.9640°N, 122.7500°W)
Time: 07:21:36
(UTC+00:00)

Cosmos 2219 Rocket - Pass Details

Date: 08 September 2024
Orbit: 827 x 845 km, 71.0° (Epoch: 05 October)

Event Time Altitude Azimuth Distance (km) Brightness Sun altitude
Rises 12:46:51 0° 338° (NNW) 3,402 5.3 -11.6°
Reaches altitude 10° 12:49:20 10° 342° (NNW) 2,461 4.6 -11.1°
Maximum altitude 12:54:57 66° 64° (ENE) 913 2.7 -10.1°
Drops below altitude 10° 13:00:30 10° 147° (SSE) 2,433 4.8 -9.1°
Sets 13:02:56 0° 150° (SSE) 3,361 5.5 -8.7°
